This demonstration page uses our WeatherBlox Daily Observations layout. Learn more.

Left ArrowRight Arrow

39.29038, -76.61219

Hourly Observations for October 12, 2016

Temp ( °F °C ) Dew Point ( °F °C ) Humidity (%) Winds ( mph kmh ) Pressure ( in mb ) Visibility ( mi km ) Precip ( " mm )
12:54 am 00:54 undefined 55 12.8 47 8.3 74 74 undefined N/A 30.38 1029 N/A 0.00 0.00
1:54 am 01:54 undefined 55 12.8 47 8.3 74 74 undefined N/A 30.38 1029 N/A 0.00 0.00
2:54 am 02:54 undefined 54 12.2 47 8.3 77 77 undefined N/A 30.36 1028 N/A 0.00 0.00
3:54 am 03:54 undefined 52 11.1 46 7.8 80 80 undefined N/A 30.36 1028 N/A 0.00 0.00
4:54 am 04:54 undefined 52 11.1 46 7.8 80 80 undefined N/A 30.35 1028 N/A 0.00 0.00
5:54 am 05:54 undefined 53 11.7 46 7.8 77 77 undefined N/A 30.35 1028 N/A 0.00 0.00
6:54 am 06:54 undefined 53 11.7 47 8.3 80 80 undefined N/A 30.35 1028 N/A 0.00 0.00
7:54 am 07:54 undefined 53 11.7 48 8.9 83 83 undefined N/A 30.35 1028 N/A 0.00 0.00
8:54 am 08:54 undefined 53 11.7 49 9.4 86 86 undefined N/A 30.37 1028 N/A 0.00 0.00
9:54 am 09:54 undefined 55 12.8 50 10 83 83 undefined N/A 30.37 1028 N/A 0.00 0.00
10:54 am 10:54 undefined 59 15 52 11.1 78 78 undefined N/A 30.36 1028 N/A 0.00 0.00
11:54 am 11:54 undefined 64 17.8 52 11.1 65 65 undefined N/A 30.35 1028 N/A 0.00 0.00
12:54 pm 12:54 undefined 65 18.3 51 10.6 61 61 undefined N/A 30.32 1027 N/A 0.00 0.00
1:54 pm 13:54 undefined 66 18.9 50 10 56 56 undefined N/A 30.29 1026 N/A 0.00 0.00
2:54 pm 14:54 undefined 67 19.4 52 11.1 59 59 undefined N/A 30.27 1025 N/A 0.00 0.00
3:54 pm 15:54 undefined 67 19.4 50 10 55 55 undefined N/A 30.24 1024 N/A 0.00 0.00
4:54 pm 16:54 undefined 67 19.4 49 9.4 53 53 undefined N/A 30.22 1024 N/A 0.00 0.00
5:54 pm 17:54 undefined 67 19.4 50 10 55 55 undefined N/A 30.21 1023 N/A 0.00 0.00
6:54 pm 18:54 undefined 65 18.3 50 10 59 59 undefined N/A 30.22 1023 N/A 0.00 0.00
7:54 pm 19:54 undefined 64 17.8 51 10.6 63 63 undefined N/A 30.21 1023 N/A 0.00 0.00
8:54 pm 20:54 undefined 62 16.7 51 10.6 67 67 undefined N/A 30.21 1023 N/A 0.00 0.00
9:54 pm 21:54 undefined 60 15.6 51 10.6 72 72 undefined N/A 30.21 1023 N/A 0.00 0.00
10:54 pm 22:54 undefined 59 15 52 11.1 78 78 undefined N/A 30.19 1022 N/A 0.00 0.00
11:54 pm 23:54 undefined 58 14.4 52 11.1 81 81 undefined N/A 30.18 1022 N/A 0.00 0.00

Powered by AerisWeather